Weather History for Cork, Ireland

Change the Weather History Date:

Friday, January 17, 2014

  Actual Average Record
Temperature  
Mean Temperature 42 °F -  
Max Temperature 47 °F 46 °F 51 °F (2006)
Min Temperature 37 °F 37 °F 33 °F (1999)
Degree Days  
Heating Degree Days 23    
Moisture  
Dew Point 39 °F    
Average Humidity 90    
Maximum Humidity 100    
Minimum Humidity 79    
Precipitation  
Precipitation 0.00 in 0.17 in - ()
Sea Level Pressure  
Sea Level Pressure 29.11 in    
Wind  
Wind Speed 6 mph ()    
Max Wind Speed 10 mph    
Max Gust Speed -    
Visibility 7.9 miles    
Events Rain    
Averages and records for this station are not official NWS values.
T = Trace of Precipitation, MM = Missing Value Source: Averaged Metar Reports

Daily Weather History Graph

Daily Weather History Graph

Search for Another Location

Airport:

Trip Planner

Search our weather history database for the weather conditions in past years. The results will help you decide how hot, cold, wet, or windy it might be!

Date:

Astronomy

Jan. 17, 2014 Rise Set
Actual Time 8:32 AM GMT 4:55 PM GMT
Civil Twilight 7:53 AM GMT 5:34 PM GMT
Nautical Twilight 7:11 AM GMT 6:16 PM GMT
Astronomical Twilight 6:31 AM GMT 6:56 PM GMT
Moon 6:47 PM GMT (1/17) 8:37 AM GMT (1/17)
Length of Visible Light 9h 40m
Length of Day
8h 23m
Full, 99% of the Moon is Illuminated
Jan 17
Full
Jan 24
Last Quarter
Jan 30
New
Feb 6
First Quarter
Feb 14
Full

Hourly Weather History & Observations

Time (GMT) Temp. Windchill Dew Point Humidity Pressure Visibility Wind Dir Wind Speed Gust Speed Precip Events Conditions
12:00 AM 40 °F - 38 °F 92% 29.00 in 12 mi SW 4.5 mph - -   Partly Cloudy
12:00 AM 41.0 °F 38.0 °F 39.2 °F 93% 28.97 in 6.2 mi SW 4.6 mph - N/A   Mostly Cloudy
12:30 AM 41.0 °F 38.0 °F 39.2 °F 93% 28.97 in 6.2 mi West 4.6 mph - N/A   Mostly Cloudy
1:00 AM 41 °F - 39 °F 90% 29.02 in 12 mi West 4.5 mph - -   Mostly Cloudy
1:00 AM 41.0 °F 38.0 °F 39.2 °F 93% 29.00 in 6.2 mi West 4.6 mph - N/A   Mostly Cloudy
1:30 AM 39.2 °F 33.6 °F 37.4 °F 93% 29.03 in 6.2 mi West 8.1 mph - N/A   Mostly Cloudy
2:00 AM 41 °F - 39 °F 90% 29.03 in 12 mi West 6.7 mph - -   Partly Cloudy
2:00 AM 41.0 °F 36.4 °F 39.2 °F 93% 29.00 in 6.2 mi West 6.9 mph - N/A   Scattered Clouds
2:30 AM 41.0 °F 36.4 °F 39.2 °F 93% 29.00 in 6.2 mi West 6.9 mph - N/A   Scattered Clouds
3:00 AM 40 °F - 38 °F 91% 29.05 in 12 mi WNW 6.7 mph - -   Partly Cloudy
3:00 AM 39.2 °F 35.0 °F 39.2 °F 100% 29.03 in 6.2 mi WNW 5.8 mph - N/A   Scattered Clouds
3:30 AM 39.2 °F 35.9 °F 37.4 °F 93% 29.03 in 6.2 mi West 4.6 mph - N/A   Partly Cloudy
4:00 AM 40 °F - 38 °F 91% 29.06 in 12 mi West 8.9 mph - -   Mostly Cloudy
4:00 AM 39.2 °F 33.0 °F 39.2 °F 100% 29.03 in 6.2 mi West 9.2 mph - N/A   Scattered Clouds
4:30 AM 41.0 °F 36.4 °F 39.2 °F 93% 29.03 in 6.2 mi West 6.9 mph - N/A   Scattered Clouds
5:00 AM 40 °F - 38 °F 91% 29.07 in 12 mi SW 4.5 mph - -   Partly Cloudy
5:00 AM 41.0 °F 38.0 °F 39.2 °F 93% 29.03 in 6.2 mi SW 4.6 mph - N/A   Scattered Clouds
5:30 AM 39.2 °F 33.6 °F 37.4 °F 93% 29.06 in 6.2 mi WSW 8.1 mph - N/A   Scattered Clouds
6:00 AM 39 °F - 38 °F 93% 29.08 in 12 mi WSW 8.9 mph - -   Scattered Clouds
6:00 AM 39.2 °F 33.6 °F 37.4 °F 93% 29.06 in 6.2 mi WSW 8.1 mph - N/A   Partly Cloudy
6:30 AM 39.2 °F 35.0 °F 37.4 °F 93% 29.06 in 6.2 mi WSW 5.8 mph - N/A   Partly Cloudy
7:00 AM 38 °F - 37 °F 95% 29.10 in 12 mi West 6.7 mph - -   Scattered Clouds
7:00 AM 39.2 °F 34.2 °F 37.4 °F 93% 29.06 in 6.2 mi West 6.9 mph - N/A   Partly Cloudy
7:30 AM 39.2 °F 32.5 °F 37.4 °F 93% 29.06 in 6.2 mi West 10.4 mph - N/A   Partly Cloudy
8:00 AM 39 °F - 37 °F 92% 29.12 in 28 mi WSW 8.9 mph - -   Scattered Clouds
8:00 AM 39.2 °F 33.6 °F 37.4 °F 93% 29.09 in 6.2 mi WSW 8.1 mph - N/A   Scattered Clouds
8:30 AM 39.2 °F 34.2 °F 37.4 °F 93% 29.09 in 6.2 mi WSW 6.9 mph - N/A   Partly Cloudy
9:00 AM 39 °F - 36 °F 86% 29.14 in 37 mi SW 4.5 mph - -   Scattered Clouds
9:00 AM 39.2 °F 37.0 °F 35.6 °F 87% 29.12 in 6.2 mi Variable 3.5 mph - N/A   Partly Cloudy
9:30 AM 37.4 °F 32.1 °F 37.4 °F 100% 29.12 in 6.2 mi SW 6.9 mph - N/A   Partly Cloudy
10:00 AM 41 °F - 38 °F 86% 29.16 in 37 mi WSW 6.7 mph - -   Scattered Clouds
10:00 AM 41.0 °F 37.1 °F 39.2 °F 93% 29.12 in 6.2 mi WSW 5.8 mph - N/A   Partly Cloudy
10:30 AM 42.8 °F 38.6 °F 39.2 °F 87% 29.12 in 6.2 mi WSW 6.9 mph - N/A   Partly Cloudy
11:00 AM 44 °F - 41 °F 83% 29.16 in 40 mi WSW 8.9 mph - -   Scattered Clouds
11:00 AM 44.6 °F 40.2 °F 41.0 °F 87% 29.12 in 6.2 mi WSW 8.1 mph - N/A   Partly Cloudy
11:30 AM 46.4 °F 42.4 °F 41.0 °F 81% 29.12 in 6.2 mi WSW 8.1 mph - N/A   Partly Cloudy
12:00 PM 46 °F - 42 °F 79% 29.16 in 40 mi WSW 8.9 mph - -   Scattered Clouds
12:00 PM 46.4 °F 42.4 °F 41.0 °F 81% 29.15 in 6.2 mi WSW 8.1 mph - N/A   Partly Cloudy
12:30 PM 46.4 °F 42.4 °F 42.8 °F 87% 29.12 in 6.2 mi WSW 8.1 mph - N/A   Partly Cloudy
1:00 PM 47 °F - 43 °F 80% 29.15 in 40 mi SW 8.9 mph - -   Scattered Clouds
1:00 PM 46.4 °F 41.9 °F 42.8 °F 87% 29.12 in 6.2 mi SW 9.2 mph - N/A   Scattered Clouds
1:30 PM 46.4 °F 41.5 °F 42.8 °F 87% 29.12 in 6.2 mi WSW 10.4 mph - N/A   Mostly Cloudy
2:00 PM 46 °F - 42 °F 80% 29.15 in 40 mi WSW 6.7 mph - -   Partly Cloudy
2:00 PM 46.4 °F 42.9 °F 41.0 °F 81% 29.12 in 6.2 mi WSW 6.9 mph - N/A   Mostly Cloudy
2:30 PM 46.4 °F 41.9 °F 42.8 °F 87% 29.12 in 6.2 mi SW 9.2 mph - N/A   Mostly Cloudy
3:00 PM 46 °F - 42 °F 80% 29.15 in 31 mi SW 8.9 mph - -   Partly Cloudy
3:00 PM 46.4 °F 42.4 °F 42.8 °F 87% 29.12 in 6.2 mi SW 8.1 mph - N/A   Mostly Cloudy
3:30 PM 44.6 °F 39.7 °F 41.0 °F 87% 29.12 in 6.2 mi WSW 9.2 mph - N/A   Mostly Cloudy
4:00 PM 44 °F - 41 °F 86% 29.16 in 31 mi WSW 8.9 mph - -   Scattered Clouds
4:00 PM 44.6 °F 39.7 °F 41.0 °F 87% 29.12 in 6.2 mi WSW 9.2 mph - N/A   Mostly Cloudy
4:30 PM 42.8 °F 38.6 °F 41.0 °F 93% 29.15 in 6.2 mi WSW 6.9 mph - N/A   Mostly Cloudy
5:00 PM 43 °F - 40 °F 87% 29.17 in 31 mi WSW 6.7 mph - -   Mostly Cloudy
5:00 PM 42.8 °F 38.6 °F 41.0 °F 93% 29.15 in 6.2 mi WSW 6.9 mph - N/A   Mostly Cloudy
5:30 PM 41.0 °F 35.8 °F 39.2 °F 93% 29.15 in 6.2 mi WSW 8.1 mph - N/A   Mostly Cloudy
6:00 PM 42 °F - 40 °F 89% 29.18 in 25 mi WSW 6.7 mph - -   Mostly Cloudy
6:00 PM 41.0 °F 36.4 °F 39.2 °F 93% 29.15 in 6.2 mi WSW 6.9 mph - N/A   Mostly Cloudy
6:30 PM 41.0 °F 37.1 °F 39.2 °F 93% 29.15 in 6.2 mi WSW 5.8 mph - N/A   Mostly Cloudy
7:00 PM 42 °F - 40 °F 92% 29.19 in 22 mi WSW 8.9 mph - -   Scattered Clouds
7:00 PM 42.8 °F 38.0 °F 41.0 °F 93% 29.18 in 6.2 mi WSW 8.1 mph - N/A   Mostly Cloudy
7:30 PM 42.8 °F 38.6 °F 39.2 °F 87% 29.18 in - West 6.9 mph - N/A   Clear
8:00 PM 42 °F - 39 °F 83% 29.20 in 19 mi West 6.7 mph - -   Mostly Cloudy
8:00 PM 42.8 °F 39.3 °F 39.2 °F 87% 29.18 in 6.2 mi West 5.8 mph - N/A   Mostly Cloudy
8:30 PM 41.0 °F 38.0 °F 39.2 °F 93% 29.18 in 6.2 mi WSW 4.6 mph - N/A   Mostly Cloudy
9:00 PM 41 °F - 38 °F 86% 29.20 in 19 mi West 6.7 mph - -   Mostly Cloudy
9:00 PM 41.0 °F 37.1 °F 39.2 °F 93% 29.18 in 6.2 mi West 5.8 mph - N/A   Mostly Cloudy
9:30 PM 41.0 °F 37.1 °F 39.2 °F 93% 29.18 in 6.2 mi WNW 5.8 mph - N/A   Mostly Cloudy
10:00 PM 41 °F - 38 °F 85% 29.19 in 19 mi WNW 4.5 mph - -   Mostly Cloudy
10:00 PM 41.0 °F 39.0 °F 37.4 °F 87% 29.18 in 6.2 mi WNW 3.5 mph - N/A   Mostly Cloudy
10:30 PM 41.0 °F - 37.4 °F 87% 29.18 in 6.2 mi West 2.3 mph - N/A   Mostly Cloudy
11:00 PM 41 °F - 38 °F 85% 29.20 in 19 mi WNW 4.5 mph - -   Partly Cloudy
11:00 PM 41.0 °F 38.0 °F 37.4 °F 87% 29.18 in 6.2 mi WNW 4.6 mph - N/A   Mostly Cloudy
11:30 PM 41.0 °F 36.4 °F 37.4 °F 87% 29.18 in 6.2 mi NW 6.9 mph - N/A Rain Light Rain